Voltar ao catálogo

STARLINK-32103

AtivoComunicaçõesVLEO
NORAD 59688·PAYLOAD·🇺🇸 United States

Lançado May 8, 2024 de Cape Canaveral Space Force Station

Loading…

Próximas Passagens (próximas 24 horas)

TLE

AtualizadoSource: CelesTrak SupGP

Época: Sep 15, 2026, 02:03 UTC

1 59688C 24086G   26258.08590278 -.00017003  00000+0 -61595-3 0  2587
2 59688  43.0043  59.7256 0001713 268.4596 318.1780 15.27580384    10

Acompanhe STARLINK-32103 em tempo real com AllMySat

Download on the App Store